Fort Benning, AL

1:06 AM CDT on July 26, 2017 (GMT -0500)
Lawson Army Air Field

Weather History for KLSF - December, 2012

Change the Weather History Date:

Sunday, December 9, 2012

  Actual Average Record
Temperature  
Mean Temperature 63 °F -  
Max Temperature 73 °F 59 °F 79 °F (2007)
Min Temperature 53 °F 36 °F 17 °F (2006)
Degree Days  
Heating Degree Days 2    
Growing Degree Days 13 (Base 50)    
Moisture  
Dew Point 59 °F    
Average Humidity 95    
Maximum Humidity 100    
Minimum Humidity 58    
Precipitation  
Precipitation 0.00 in - - ()
Sea Level Pressure  
Sea Level Pressure 30.06 in    
Wind  
Wind Speed 2 mph (SSE)    
Max Wind Speed 9 mph    
Max Gust Speed -    
Visibility 5 miles    
Events Fog    
Averages and records for this station are not official NWS values.
T = Trace of Precipitation, MM = Missing Value Source: NWS Daily Summary

Daily Weather History Graph

Daily Weather History Graph

Search for Another Location

Airport or City:

Trip Planner

Search our weather history database for the weather conditions in past years. The results will help you decide how hot, cold, wet, or windy it might be!

Date:

Astronomy

Dec. 09, 2012 Rise Set
Actual Time 7:30 AM EST 5:35 PM EST
Civil Twilight 7:03 AM EST 6:02 PM EST
Nautical Twilight 6:32 AM EST 6:32 PM EST
Astronomical Twilight 6:02 AM EST 7:02 PM EST
Moon 3:12 AM EST (12/9) 2:32 PM EST (12/9)
Length of Visible Light 10h 59m
Length of Day
10h 04m
Waning Crescent, 19% of the Moon is Illuminated
Dec 9
Waning Crescent
Dec 13
New
Dec 20
First Quarter
Dec 28
Full
Jan 4
Last Quarter

Hourly Weather History & Observations

Time (EST) Temp. Dew Point Humidity Pressure Visibility Wind Dir Wind Speed Gust Speed Precip Events Conditions
12:00 AM 60.8 °F 60.8 °F 100% 30.04 in 2.0 mi Calm Calm - N/A   Scattered Clouds
12:03 AM 60.8 °F 60.8 °F 100% 30.04 in 3.0 mi Calm Calm - N/A   Scattered Clouds
12:04 AM 60.8 °F 60.8 °F 100% 30.04 in 3.0 mi Calm Calm - N/A   Scattered Clouds
12:23 AM 59.0 °F 57.2 °F 94% 30.04 in 9.0 mi Calm Calm - N/A   Mostly Cloudy
12:26 AM 59.0 °F 57.2 °F 94% 30.04 in 10.0 mi ESE 3.5 mph - N/A   Mostly Cloudy
12:51 AM 62.6 °F 62.6 °F 100% 30.03 in 10.0 mi South 5.8 mph - N/A   Overcast
12:55 AM 63.0 °F 62.6 °F 99% 30.03 in 10.0 mi South 5.8 mph - N/A   Overcast
1:08 AM 62.6 °F 62.6 °F 100% 30.03 in 10.0 mi South 4.6 mph - N/A   Scattered Clouds
1:13 AM 62.6 °F 62.6 °F 100% 30.03 in 9.0 mi SSE 3.5 mph - N/A   Mostly Cloudy
1:15 AM 62.6 °F 62.6 °F 100% 30.03 in 8.0 mi SSE 3.5 mph - N/A   Mostly Cloudy
1:18 AM 62.6 °F 62.6 °F 100% 30.03 in 7.0 mi Calm Calm - N/A   Mostly Cloudy
1:28 AM 62.6 °F 62.6 °F 100% 30.03 in 6.0 mi SSW 3.5 mph - N/A   Mostly Cloudy
1:34 AM 62.6 °F 62.6 °F 100% 30.03 in 7.0 mi SSW 4.6 mph - N/A   Overcast
1:55 AM 63.7 °F 63.3 °F 99% 30.04 in 10.0 mi SSW 3.5 mph - N/A   Overcast
2:07 AM 64.4 °F 62.6 °F 94% 30.04 in 10.0 mi WSW 3.5 mph - N/A   Overcast
2:35 AM 64.4 °F 62.6 °F 94% 30.04 in 10.0 mi SW 4.6 mph - N/A   Overcast
2:43 AM 64.4 °F 62.6 °F 94% 30.04 in 10.0 mi Calm Calm - N/A   Overcast
2:55 AM 64.0 °F 61.7 °F 92% 30.03 in 10.0 mi Calm Calm - N/A   Overcast
3:12 AM 64.4 °F 62.6 °F 94% 30.03 in 10.0 mi Calm Calm - N/A   Overcast
3:26 AM 64.4 °F 62.6 °F 94% 30.04 in 10.0 mi Calm Calm - N/A   Overcast
3:55 AM 61.5 °F 60.8 °F 97% 30.04 in 9.0 mi SE 3.5 mph - N/A   Mostly Cloudy
4:02 AM 60.8 °F 60.8 °F 100% 30.04 in 4.0 mi SSE 3.5 mph - N/A   Scattered Clouds
4:05 AM 60.8 °F 60.8 °F 100% 30.04 in 2.0 mi SSE 4.6 mph - N/A   Scattered Clouds
4:06 AM 60.8 °F 60.8 °F 100% 30.04 in 1.5 mi SSE 4.6 mph - N/A   Scattered Clouds
4:07 AM 60.8 °F 60.8 °F 100% 30.04 in 1.0 mi SSE 4.6 mph - N/A   Mist
4:09 AM 60.8 °F 60.8 °F 100% 30.04 in 0.8 mi SSE 3.5 mph - N/A   Mist
4:10 AM 60.8 °F 60.8 °F 100% 30.04 in 0.8 mi SSE 3.5 mph - N/A   Mist
4:15 AM 60.8 °F 60.8 °F 100% 30.03 in 0.5 mi SSE 3.5 mph - N/A Fog Fog
4:21 AM 59.0 °F 59.0 °F 100% 30.03 in 0.2 mi ESE 3.5 mph - N/A Fog Fog
4:22 AM 59.0 °F 59.0 °F 100% 30.03 in 0.2 mi SE 3.5 mph - N/A Fog Fog
4:25 AM 60.8 °F 59.0 °F 94% 30.03 in 0.2 mi Calm Calm - N/A Fog Fog
4:26 AM 60.8 °F 59.0 °F 94% 30.03 in 0.5 mi Calm Calm - N/A Fog Fog
4:35 AM 59.0 °F 59.0 °F 100% 30.02 in 0.5 mi Calm Calm - N/A Fog Fog
4:36 AM 60.8 °F 59.0 °F 94% 30.03 in 0.5 mi Calm Calm - N/A Fog Fog
4:38 AM 60.8 °F 59.0 °F 94% 30.03 in 0.5 mi Calm Calm - N/A Fog Fog
4:48 AM 59.0 °F 59.0 °F 100% 30.03 in 0.5 mi Calm Calm - N/A Fog Fog
4:53 AM 59.0 °F 59.0 °F 100% 30.04 in 0.5 mi Calm Calm - N/A Fog Fog
4:54 AM 59.0 °F 59.0 °F 100% 30.04 in 0.2 mi Calm Calm - N/A Fog Fog
4:55 AM 59.4 °F 59.0 °F 99% 30.04 in 0.2 mi Calm Calm - N/A Fog Fog
4:59 AM 59.0 °F 59.0 °F 100% 30.04 in 0.2 mi Calm Calm - N/A Fog Fog
5:00 AM 59.0 °F 59.0 °F 100% 30.04 in 0.2 mi Calm Calm - N/A Fog Fog
5:01 AM 59.0 °F 59.0 °F 100% 30.04 in 0.5 mi Calm Calm - N/A Fog Fog
5:02 AM 59.0 °F 59.0 °F 100% 30.04 in 0.5 mi Calm Calm - N/A Fog Fog
5:03 AM 59.0 °F 59.0 °F 100% 30.04 in 0.5 mi Calm Calm - N/A Fog Fog
5:04 AM 59.0 °F 59.0 °F 100% 30.04 in 0.8 mi Calm Calm - N/A   Overcast
5:05 AM 59.0 °F 59.0 °F 100% 30.04 in 1.0 mi Calm Calm - N/A   Overcast
5:06 AM 59.0 °F 57.2 °F 94% 30.04 in 1.5 mi Calm Calm - N/A   Overcast
5:07 AM 57.2 °F 57.2 °F 100% 30.04 in 2.5 mi Calm Calm - N/A   Overcast
5:08 AM 57.2 °F 57.2 °F 100% 30.04 in 4.0 mi Calm Calm - N/A   Overcast
5:09 AM 57.2 °F 57.2 °F 100% 30.04 in 6.0 mi Calm Calm - N/A   Overcast
5:49 AM 57.2 °F 57.2 °F 100% 30.05 in 2.5 mi Calm Calm - N/A   Mostly Cloudy
5:50 AM 57.2 °F 57.2 °F 100% 30.05 in 1.8 mi Calm Calm - N/A   Mostly Cloudy
5:51 AM 57.2 °F 57.2 °F 100% 30.05 in 1.5 mi Calm Calm - N/A   Mostly Cloudy
5:52 AM 57.2 °F 57.2 °F 100% 30.05 in 1.2 mi Calm Calm - N/A   Scattered Clouds
5:53 AM 57.2 °F 57.2 °F 100% 30.05 in 1.0 mi Calm Calm - N/A   Mist
5:54 AM 57.2 °F 57.2 °F 100% 30.05 in 0.8 mi ESE 3.5 mph - N/A   Mist
5:55 AM 56.5 °F 56.3 °F 99% 30.05 in 0.8 mi ESE 3.5 mph - N/A   Mist
5:56 AM 57.2 °F 55.4 °F 94% 30.05 in 0.5 mi ESE 3.5 mph - N/A Fog Fog
5:57 AM 57.2 °F 55.4 °F 94% 30.05 in 0.5 mi ESE 3.5 mph - N/A Fog Fog
5:58 AM 55.4 °F 55.4 °F 100% 30.05 in 0.5 mi ESE 3.5 mph - N/A Fog Fog
6:00 AM 55.4 °F 55.4 °F 100% 30.05 in 0.2 mi SE 3.5 mph - N/A Fog Fog
6:05 AM 55.4 °F 55.4 °F 100% 30.05 in 0.2 mi Calm Calm - N/A Fog Fog
6:09 AM 55.4 °F 55.4 °F 100% 30.05 in 0.2 mi Calm Calm - N/A Fog Fog
6:18 AM 55.4 °F 53.6 °F 94% 30.06 in 0.2 mi South 3.5 mph - N/A Fog Fog
6:35 AM 53.6 °F 53.6 °F 100% 30.06 in 0.5 mi Calm Calm - N/A Fog Fog
6:55 AM 55.0 °F 54.7 °F 99% 30.08 in 0.5 mi Calm Calm - N/A Fog Fog
6:56 AM 55.4 °F 55.4 °F 100% 30.08 in 0.5 mi Calm Calm - N/A Fog Fog
6:57 AM 55.4 °F 55.4 °F 100% 30.08 in 0.5 mi Calm Calm - N/A Fog Fog
6:59 AM 55.4 °F 55.4 °F 100% 30.08 in 0.8 mi Calm Calm - N/A   Overcast
7:01 AM 55.4 °F 55.4 °F 100% 30.08 in 1.0 mi Calm Calm - N/A   Overcast
7:04 AM 55.4 °F 53.6 °F 94% 30.08 in 1.2 mi Calm Calm - N/A   Overcast
7:05 AM 55.4 °F 53.6 °F 94% 30.08 in 1.2 mi Calm Calm - N/A   Overcast
7:06 AM 55.4 °F 53.6 °F 94% 30.08 in 1.5 mi Calm Calm - N/A   Overcast
7:11 AM 53.6 °F 53.6 °F 100% 30.08 in 1.8 mi Calm Calm - N/A   Overcast
7:15 AM 55.4 °F 53.6 °F 94% 30.09 in 1.5 mi Calm Calm - N/A   Overcast
7:18 AM 55.4 °F 55.4 °F 100% 30.08 in 1.5 mi Calm Calm - N/A   Overcast
7:19 AM 55.4 °F 55.4 °F 100% 30.08 in 1.8 mi Calm Calm - N/A   Overcast
7:21 AM 55.4 °F 55.4 °F 100% 30.08 in 2.0 mi Calm Calm - N/A   Overcast
7:23 AM 55.4 °F 55.4 °F 100% 30.08 in 1.8 mi East 3.5 mph - N/A   Overcast
7:24 AM 55.4 °F 55.4 °F 100% 30.09 in 1.8 mi East 3.5 mph - N/A   Overcast
7:25 AM 55.4 °F 55.4 °F 100% 30.09 in 2.0 mi East 3.5 mph - N/A   Overcast
7:27 AM 55.4 °F 55.4 °F 100% 30.09 in 1.8 mi Calm Calm - N/A   Overcast
7:29 AM 57.2 °F 55.4 °F 94% 30.09 in 1.8 mi Calm Calm - N/A   Overcast
7:31 AM 57.2 °F 55.4 °F 94% 30.09 in 2.0 mi Calm Calm - N/A   Overcast
7:32 AM 57.2 °F 55.4 °F 94% 30.09 in 2.0 mi Calm Calm - N/A   Overcast
7:35 AM 57.2 °F 57.2 °F 100% 30.09 in 3.0 mi Calm Calm - N/A   Overcast
7:37 AM 57.2 °F 57.2 °F 100% 30.09 in 4.0 mi Calm Calm - N/A   Overcast
7:38 AM 57.2 °F 57.2 °F 100% 30.09 in 5.0 mi Calm Calm - N/A   Overcast
7:47 AM 57.2 °F 57.2 °F 100% 30.09 in 4.0 mi Calm Calm - N/A   Overcast
7:50 AM 57.2 °F 57.2 °F 100% 30.09 in 2.5 mi Calm Calm - N/A   Overcast
7:55 AM 56.8 °F 56.5 °F 99% 30.09 in 2.0 mi Calm Calm - N/A   Overcast
7:59 AM 57.2 °F 57.2 °F 100% 30.09 in 3.0 mi Calm Calm - N/A   Overcast
8:09 AM 57.2 °F 57.2 °F 100% 30.09 in 5.0 mi Calm Calm - N/A   Overcast
8:16 AM 59.0 °F 59.0 °F 100% 30.09 in 7.0 mi Calm Calm - N/A   Overcast
8:30 AM 59.0 °F 59.0 °F 100% 30.09 in 9.0 mi Calm Calm - N/A   Overcast
8:32 AM 59.0 °F 59.0 °F 100% 30.09 in 10.0 mi Calm Calm - N/A   Overcast
8:48 AM 60.8 °F 60.8 °F 100% 30.10 in 9.0 mi Calm Calm - N/A   Overcast
8:55 AM 60.6 °F 60.6 °F 100% 30.10 in 10.0 mi Calm Calm - N/A   Overcast
8:56 AM 60.8 °F 60.8 °F 100% 30.10 in 10.0 mi Calm Calm - N/A   Overcast
9:07 AM 60.8 °F 60.8 °F 100% 30.10 in 10.0 mi Calm Calm - N/A   Overcast
9:19 AM 62.6 °F 62.6 °F 100% 30.10 in 10.0 mi Calm Calm - N/A   Overcast
9:27 AM 62.6 °F 62.6 °F 100% 30.10 in 10.0 mi Calm Calm - N/A   Overcast
9:31 AM 62.6 °F 62.6 °F 100% 30.10 in 10.0 mi SE 3.5 mph - N/A   Overcast
9:39 AM 62.6 °F 62.6 °F 100% 30.10 in 10.0 mi SE 4.6 mph - N/A   Overcast
9:55 AM 63.0 °F 63.0 °F 100% 30.11 in 10.0 mi SE 5.8 mph - N/A   Overcast
10:10 AM 62.6 °F 62.6 °F 100% 30.11 in 10.0 mi South 4.6 mph - N/A   Overcast
10:27 AM 64.4 °F 64.4 °F 100% 30.11 in 10.0 mi South 9.2 mph - N/A   Overcast
10:33 AM 64.4 °F 64.4 °F 100% 30.11 in 10.0 mi South 6.9 mph - N/A   Overcast
10:55 AM 64.6 °F 64.2 °F 99% 30.11 in 10.0 mi South 6.9 mph - N/A   Overcast
11:07 AM 64.4 °F 62.6 °F 94% 30.11 in 10.0 mi South 8.1 mph - N/A   Overcast
11:55 AM 67.8 °F 61.3 °F 80% 30.08 in 10.0 mi South 8.1 mph - N/A   Overcast
12:02 PM 68.0 °F 60.8 °F 78% 30.08 in 10.0 mi SW 6.9 mph - N/A   Mostly Cloudy
12:19 PM 69.8 °F 60.8 °F 73% 30.07 in 10.0 mi South 4.6 mph - N/A   Mostly Cloudy
12:20 PM 69.8 °F 60.8 °F 73% 30.07 in 10.0 mi South 6.9 mph - N/A   Mostly Cloudy
12:28 PM 69.8 °F 60.8 °F 73% 30.07 in 10.0 mi SW 5.8 mph - N/A   Mostly Cloudy
12:44 PM 71.6 °F 60.8 °F 69% 30.06 in 10.0 mi South 8.1 mph - N/A   Overcast
12:55 PM 71.4 °F 59.9 °F 67% 30.05 in 10.0 mi SW 6.9 mph - N/A   Overcast
1:55 PM 73.8 °F 58.1 °F 58% 30.02 in 10.0 mi Variable 4.6 mph - N/A   Mostly Cloudy
2:55 PM 73.6 °F 57.9 °F 58% 30.01 in 10.0 mi South 3.5 mph - N/A   Partly Cloudy
3:55 PM 72.7 °F 57.7 °F 59% 30.01 in 10.0 mi SSW 6.9 mph - N/A   Scattered Clouds
4:55 PM 71.2 °F 58.3 °F 64% 30.01 in 10.0 mi South 5.8 mph - N/A   Clear
5:55 PM 65.5 °F 57.6 °F 76% 30.01 in 10.0 mi South 5.8 mph - N/A   Clear
6:55 PM 61.0 °F 56.8 °F 86% 30.01 in 10.0 mi SE 4.6 mph - N/A   Clear
7:55 PM 59.7 °F 56.8 °F 90% 30.01 in 10.0 mi SSE 4.6 mph - N/A   Clear
8:55 PM 59.4 °F 56.3 °F 90% 30.00 in 10.0 mi SSE 3.5 mph - N/A   Clear
9:55 PM 59.2 °F 57.2 °F 93% 30.00 in 10.0 mi SSE 3.5 mph - N/A   Overcast
10:55 PM 59.0 °F 56.8 °F 93% 29.99 in 10.0 mi SSE 4.6 mph - N/A   Scattered Clouds
11:55 PM 56.8 °F 55.9 °F 97% 29.98 in 10.0 mi SSE 5.8 mph - N/A   Partly Cloudy